This is the latest recevied weather packets stored in our database for station/object NI4CE-11. If no packets are shown the sender has not sent any weather packets the latest 10 day(s).
| Time | Temp. | Humidity | Pressure | Rain* | Wind** | Luminosity | Snow |
|---|---|---|---|---|---|---|---|
| 1776967554 | 29.44° C | 100% | 1017.1 hPa | 0 mm | - | - | - |
| 1776967471 | 30° C | 100% | 1017.1 hPa | 0 mm | - | - | - |
| 1776967254 | 30° C | 100% | 1017.1 hPa | 0 mm | - | - | - |
| 1776967167 | 29.44° C | 100% | 1017.1 hPa | 0 mm | - | - | - |
| 1776966954 | 29.44° C | 100% | 1017.1 hPa | 0 mm | - | - | - |
| 1776966654 | 28.33° C | 100% | 1017.2 hPa | 0 mm | - | - | - |
| 1776966354 | 30° C | 100% | 1017.4 hPa | 0 mm | - | - | - |
| 1776966054 | 28.89° C | 100% | 1017.4 hPa | 0 mm | - | - | - |
| 1776965754 | 29.44° C | 100% | 1017.4 hPa | 0 mm | - | - | - |
| 1776965454 | 28.89° C | 100% | 1017.5 hPa | 0 mm | - | - | - |
| 1776965299 | 30° C | 100% | 1017.6 hPa | 0 mm | - | - | - |
| 1776965154 | 26.67° C | 100% | 1017.5 hPa | 0 mm | - | - | - |
| 1776964854 | 30° C | 100% | 1017.6 hPa | 0 mm | - | - | - |
| 1776964726 | 28.33° C | 100% | 1017.8 hPa | 0 mm | - | - | - |
| 1776964554 | 28.33° C | 100% | 1017.8 hPa | 0 mm | - | - | - |
| 1776964254 | 27.22° C | 100% | 1017.9 hPa | 0 mm | - | - | - |
| 1776963954 | 30.56° C | 100% | 1017.9 hPa | 0 mm | - | - | - |
| 1776963654 | 28.89° C | 100% | 1018.1 hPa | 0 mm | - | - | - |
| 1776963354 | 28.89° C | 100% | 1018.2 hPa | 0 mm | - | - | - |
| 1776963054 | 28.33° C | 100% | 1018.3 hPa | 0 mm | - | - | - |
| 1776962754 | 27.78° C | 100% | 1018.3 hPa | 0 mm | - | - | - |
| 1776962454 | 25.56° C | 100% | 1018.4 hPa | 0 mm | - | - | - |
| 1776962154 | 26.11° C | 100% | 1018.4 hPa | 0 mm | - | - | - |
| 1776961997 | 27.78° C | 100% | 1018.9 hPa | 0 mm | - | - | - |
| 1776961854 | 26.67° C | 100% | 1018.4 hPa | 0 mm | - | - | - |
* Rain latest hour (hover to see other rain measurements)
** Current wind speed in m/s (hover to see current wind gust speed)